Regional Weather Roundup
Issued by NWS Green Bay, WI

Home | Current Version | Previous Version | Text Only | Print | Product List | Glossary On
Versions: 1 2 3 4 5 6 7 8 9 10 11 12 13 14 15 16 17 18 19 20 21 22 23 24 25 26 27 28 29 30 31 32 33 34 35 36 37 38 39 40 41 42 43 44 45 46 47 48 49 50
000
ASUS43 KGRB 291011
RWRGRB

NORTH-CENTRAL AND NORTHEAST WISCONSIN REGIONAL WEATHER ROUNDUP
NATIONAL WEATHER SERVICE GREEN BAY WI
500 AM CDT FRI APR 29 2016

WIZ005-009-010>012-018-019-291100-
NORTH CENTRAL WISCONSIN

CITY           SKY/WX    TMP DP  RH WIND       PRES   REMARKS
IRONWOOD       CLOUDY    32  28  86 CALM      30.12R
MANITOWISH WTR CLOUDY    35  35 100 CALM      30.12R
ARBOR VITAE    CLOUDY    39  37  93 CALM      30.12R
EAGLE RIVER    DRIZZLE   37  36  94 CALM      30.11S
LAND O LAKES   CLOUDY    37  33  84 CALM      30.13R
RHINELANDER    LGT RAIN  37  35  92 CALM      30.11S
PHILLIPS       CLOUDY    38  35  89 CALM      30.12R
ANTIGO         CLOUDY    36  35  97 N7        30.10S
TOMAHAWK       CLOUDY    36  35  96 CALM      30.12S
MERRILL        CLOUDY    37  37 100 CALM      30.12S
$$

WIZ013-073-291100-
NORTHEAST WISCONSIN

CITY           SKY/WX    TMP DP  RH WIND       PRES   REMARKS
IRON MOUNTAIN  CLOUDY    38  26  62 NW3       30.10R
MARINETTE      CLOUDY    41  28  60 NE6       30.10S
OCONTO         CLOUDY    40  36  86 NW3       30.09S
$$

WIZ017-030-035>037-045-291100-
CENTRAL WISCONSIN

CITY           SKY/WX    TMP DP  RH WIND       PRES   REMARKS
MEDFORD        CLOUDY    36  36 100 CALM      30.11S
WAUSAU         CLOUDY    40  35  83 N6        30.09S
MOSINEE        CLOUDY    36  36 100 N6        30.11S
MARSHFIELD     CLOUDY    39  35  86 N5        30.10S
WISC RAPIDS    CLOUDY    39  34  82 N8        30.11F
STEVENS POINT  CLOUDY    35  34  96 N5        30.11S
WAUPACA        CLOUDY    41  35  80 N5        30.10R
SHAWANO        CLOUDY    40  36  84 N5        30.10S
CLINTONVILLE   CLOUDY    37  34  87 N5        30.09S
WAUTOMA        NOT AVBL
$$

WIZ038-039-048-051-291100-
FOX VALLEY

CITY           SKY/WX    TMP DP  RH WIND       PRES   REMARKS
NWS GREEN BAY  LGT RAIN  41  36  82 NE6       30.08S
APPLETON       LGT RAIN  37  32  81 N5        30.07R
OSHKOSH        CLOUDY    42  34  73 CALM      30.07R
FOND DU LAC    LGT RAIN  40  36  86 NE3       30.07R
$$

WIZ022-050-052-291100-
EAST CENTRAL WISCONSIN

CITY           SKY/WX    TMP DP  RH WIND       PRES   REMARKS
EPHRAIM        CLOUDY    39  33  79 N7        30.08F
STURGEON BAY   CLOUDY    39  30  70 NE3       30.11S
MANITOWOC      LGT RAIN  39  36  89 S6        30.08S
SHEBOYGAN      LGT RAIN  39  36  89 N3        30.07R
$$

LMZ563-521-522-541>543-291100-
LAKESHORE

STATION/POSITION TIME  TEMP    WIND        PRES    VSBY  WAVE
                       AIR SEA DIR/SP/G                  HT/PER
                 (UTC) (F)     (DEG/KT/KT) (MB)    (MI)  (FT/S)
SHEBOYGAN LKSHOR 1000   40      40/  8/  8 1019.0R
KEWAUNEE LKSHORE 0900   41     260/  2/  4 1017.9R
ALGOMA MARINA    0915           10/  3/  5   N/A
NORTHPORT PIER   0900   40      20/  4/  5 1019.3R
N MID LAKE BUOY  0950   39 38   50/  8/  8 1019.5R         1/ 3
CHAMBERS ISLAND  0900   40      10/  8/ 10 1019.3R
MENOMINEE LKSHOR 0900   42      30/  9/ 10 1018.1R
$$




USA.gov is the U.S. government's official web portal to all federal, state and local government web resources and services.